Location: Castrojimeno
(41.3966°N, 3.8473°W)
Time: 21:37:22
(UTC+00:00)

Geosat - Pass Details

Date: 15 May 2026
Orbit: 758 x 760 km, 108.0° (Epoch: 10 June)

Event Time Altitude Azimuth Distance (km) Brightness Sun altitude
Rises 22:28:29 0° 27° (NNE) 3,226 7.7 -25.0°
Reaches altitude 10° 22:30:47 10° 29° (NNE) 2,297 6.9 -25.2°
Enters shadow 22:35:40 75° 98° (E) 787 3.8 -25.6°
